This demonstration page uses our WeatherBlox Daily Observations layout. Learn more.

Left ArrowRight Arrow

39.01783, -85.05884

Hourly Observations for October 7, 2016

Temp ( °F °C ) Dew Point ( °F °C ) Humidity (%) Winds ( mph kmh ) Pressure ( in mb ) Visibility ( mi km ) Precip ( " mm )
12:52 am 00:52 Clear 67 19.4 57 13.9 71 71 ESE 7 11 30.07 1018 10 16 0.00 0.00
1:52 am 01:52 Clear 67 19.4 56 13.3 68 68 ENE 5 7 30.07 1018 10 16 0.00 0.00
2:52 am 02:52 Clear 64 17.8 57 13.9 78 78 NE 3 6 30.08 1019 10 16 0.00 0.00
3:52 am 03:52 Clear 61 16.1 58 14.4 90 90 N 7 11 30.08 1019 10 16 0.00 0.00
4:52 am 04:52 Clear 57 13.9 57 13.9 100 100 E 5 7 30.08 1019 9 14 0.00 0.00
5:52 am 05:52 Clear 60 15.6 55 12.8 84 84 ESE 3 6 30.09 1019 10 16 0.00 0.00
6:52 am 06:52 Clear 60 15.6 55 12.8 84 84 SE 10 17 30.09 1019 10 16 0.00 0.00
7:52 am 07:52 Sunny 59 15 55 12.8 87 87 SE 7 11 30.09 1019 10 16 0.00 0.00
8:52 am 08:52 Sunny 61 16.1 55 12.8 81 81 E 3 6 30.10 1019 10 16 0.00 0.00
9:52 am 09:52 Sunny 64 17.8 56 13.3 75 75 Calm 30.10 1019 10 16 0.00 0.00
10:52 am 10:52 Sunny 69 20.6 58 14.4 68 68 W 5 7 30.10 1019 10 16 0.00 0.00
11:52 am 11:52 Sunny 72 22.2 58 14.4 61 61 Calm 30.08 1019 10 16 0.00 0.00
12:52 pm 12:52 Sunny 75 23.9 58 14.4 55 55 Calm 30.06 1018 10 16 0.00 0.00
1:52 pm 13:52 Sunny 78 25.6 58 14.4 50 50 SE 7 11 30.04 1017 10 16 0.00 0.00
2:52 pm 14:52 Sunny 78 25.6 58 14.4 50 50 SSE 5 7 30.02 1017 10 16 0.00 0.00
3:52 pm 15:52 Sunny 80 26.7 59 15 49 49 SSW 3 6 30.00 1016 10 16 0.00 0.00
4:52 pm 16:52 Mostly Sunny 80 26.7 58 14.4 47 47 Calm 30.00 1016 10 16 0.00 0.00
5:52 pm 17:52 Sunny 79 26.1 59 15 50 50 E 7 11 29.99 1016 10 16 0.00 0.00
6:52 pm 18:52 Mostly Sunny 76 24.4 59 15 56 56 NW 6 9 30.02 1017 10 16 0.00 0.00
7:52 pm 19:52 Mostly Clear 69 20.6 59 15 70 70 Calm 30.02 1017 10 16 0.00 0.00
8:52 pm 20:52 Clear 68 20 59 15 73 73 Calm 30.02 1017 10 16 0.00 0.00
9:52 pm 21:52 Clear 69 20.6 60 15.6 73 73 NNW 10 17 30.04 1017 10 16 0.00 0.00
10:52 pm 22:52 Clear 68 20 60 15.6 76 76 NNW 9 15 30.04 1017 10 16 0.00 0.00
11:52 pm 23:52 Clear 67 19.4 60 15.6 79 79 NNW 9 15 30.04 1017 10 16 0.00 0.00

Powered by AerisWeather